Weather History for Eugene, OR

Change the Weather History Date:

Monday, December 31, 2012

  Actual Average Record
Temperature  
Mean Temperature 36 °F 39 °F  
Max Temperature 42 °F 45 °F 62 °F (1996)
Min Temperature 30 °F 34 °F 10 °F (1978)
Degree Days  
Heating Degree Days 29 26  
Month to date heating degree days 699 787  
Since 1 July heating degree days 1626 1957  
Cooling Degree Days 0 0  
Month to date cooling degree days 0 0  
Year to date cooling degree days 230 239  
Moisture  
Dew Point 34 °F    
Average Humidity 85    
Maximum Humidity 100    
Minimum Humidity 70    
Precipitation  
Precipitation T in 0.23 in 2.00 in (1893)
Month to date precipitation 7.45 7.83  
Year to date precipitation 50.19 46.10  
Snow  
Snow 0.00 in - - ()
Month to date snowfall 0.0  
Since 1 July snowfall 0.0  
Snow Depth 0.00 in    
Sea Level Pressure  
Sea Level Pressure 30.31 in    
Wind  
Wind Speed 5 mph (East)    
Max Wind Speed 9 mph    
Max Gust Speed 12 mph    
Visibility 9 miles    
Events Rain , Snow    
T = Trace of Precipitation, MM = Missing Value Source: NWS Daily Summary

Daily Weather History Graph

Daily Weather History Graph

Search for Another Location

Airport:

Trip Planner

Search our weather history database for the weather conditions in past years. The results will help you decide how hot, cold, wet, or windy it might be!

Date:

Astronomy

Dec. 31, 2012 Rise Set
Actual Time 7:48 AM PST 4:44 PM PST
Civil Twilight 7:14 AM PST 5:17 PM PST
Nautical Twilight 6:38 AM PST 5:54 PM PST
Astronomical Twilight 6:03 AM PST 6:29 PM PST
Moon 8:29 PM PST (12/31) 9:25 AM PST (12/31)
Length of Visible Light 10h 02m
Length of Day
8h 56m
Waning Gibbous, 89% of the Moon is Illuminated
Dec 31
Waning Gibbous
Jan 4
Last Quarter
Jan 11
New
Jan 18
First Quarter
Jan 26
Full

Hourly Weather History & Observations

Time (PST) Temp. Windchill Dew Point Humidity Pressure Visibility Wind Dir Wind Speed Gust Speed Precip Events Conditions
12:54 AM 35.1 °F 30.1 °F 34.0 °F 96% 30.31 in 10.0 mi SSE 5.8 mph - N/A   Overcast
1:54 AM 35.1 °F 29.3 °F 33.1 °F 92% 30.31 in 10.0 mi South 6.9 mph - N/A   Mostly Cloudy
2:40 AM 33.8 °F 27.7 °F 32.0 °F 93% 30.29 in 10.0 mi SSE 6.9 mph - N/A   Scattered Clouds
2:54 AM 33.1 °F 27.7 °F 32.0 °F 96% 30.30 in 10.0 mi SE 5.8 mph - N/A   Clear
3:54 AM 34.0 °F 28.8 °F 32.0 °F 92% 30.30 in 10.0 mi SSE 5.8 mph - N/A   Clear
4:54 AM 32.0 °F 25.6 °F 30.0 °F 92% 30.29 in 10.0 mi SSE 6.9 mph - N/A   Clear
5:54 AM 30.0 °F 24.1 °F 28.9 °F 96% 30.29 in 10.0 mi South 5.8 mph - N/A   Mostly Cloudy
6:54 AM 32.0 °F 27.5 °F 30.0 °F 92% 30.27 in 10.0 mi South 4.6 mph - 0.00 in   Mostly Cloudy
7:54 AM 33.1 °F 30.0 °F 32.0 °F 96% 30.28 in 10.0 mi South 3.5 mph - N/A   Overcast
8:54 AM 34.0 °F 31.0 °F 33.1 °F 96% 30.29 in 10.0 mi SE 3.5 mph - N/A   Overcast
9:54 AM 36.0 °F - 33.1 °F 89% 30.30 in 10.0 mi Calm Calm - N/A   Overcast
10:54 AM 37.0 °F 33.3 °F 34.0 °F 89% 30.30 in 10.0 mi SSE 4.6 mph - N/A   Overcast
11:54 AM 39.0 °F 35.7 °F 34.0 °F 82% 30.29 in 10.0 mi South 4.6 mph - N/A   Overcast
12:54 PM 41.0 °F 35.8 °F 33.1 °F 73% 30.27 in 10.0 mi ESE 8.1 mph - N/A   Overcast
1:54 PM 42.1 °F 37.7 °F 34.0 °F 73% 30.26 in 10.0 mi SSE 6.9 mph - N/A   Overcast
2:54 PM 42.1 °F 39.2 °F 35.1 °F 76% 30.27 in 10.0 mi SE 4.6 mph - 0.00 in Rain Light Rain
3:54 PM 39.2 °F 34.2 °F 35.6 °F 87% 30.28 in 10.0 mi NNE 6.9 mph - N/A Rain Light Rain
4:54 PM 37.9 °F 34.4 °F 36.0 °F 93% 30.31 in 10.0 mi North 4.6 mph - 0.00 in   Mostly Cloudy
5:54 PM 37.0 °F 33.3 °F 35.1 °F 93% 30.32 in 10.0 mi North 4.6 mph - 0.00 in   Overcast
6:54 PM 37.0 °F 32.4 °F 35.1 °F 93% 30.32 in 10.0 mi North 5.8 mph - N/A   Overcast
7:35 PM 37.4 °F 32.1 °F 35.6 °F 93% 30.33 in 10.0 mi North 6.9 mph - N/A   Overcast
7:54 PM 37.0 °F 33.3 °F 36.0 °F 96% 30.33 in 10.0 mi NNW 4.6 mph - N/A   Overcast
8:06 PM 37.4 °F 33.8 °F 35.6 °F 93% 30.33 in 9.0 mi NNW 4.6 mph - N/A   Overcast
8:54 PM 37.0 °F 31.0 °F 36.0 °F 96% 30.35 in 9.0 mi North 8.1 mph - N/A   Overcast
9:54 PM 36.0 °F 30.3 °F 35.1 °F 97% 30.37 in 7.0 mi North 6.9 mph - N/A   Mostly Cloudy
10:54 PM 35.1 °F 31.0 °F 34.0 °F 96% 30.38 in 5.0 mi North 4.6 mph - N/A   Mostly Cloudy
11:20 PM 33.8 °F 28.6 °F 32.0 °F 93% 30.38 in 6.0 mi NNE 5.8 mph - N/A   Scattered Clouds
11:37 PM 33.8 °F 29.6 °F 33.8 °F 100% 30.39 in 5.0 mi North 4.6 mph - N/A Snow Light Snow
11:54 PM 33.8 °F - 33.8 °F 100% 30.38 in 5.0 mi Calm Calm - N/A Snow Light Snow